(464907) = 2005 SR189

Discovered at Mount Lemmon on 2005-09-29 by Mt. Lemmon Survey.

Orbit

Orbit type: Main Belt

Note: WebGL enabled browser required.

epoch2024-03-31.0
epoch JD2460400.5
perihelion date2021-10-04.97240
perihelion JD2459492.47240
argument of perihelion (°)146.15014
ascending node (°)192.00388
inclination (°)5.07577
eccentricity0.2349137
perihelion distance (AU)1.9519621
Tisserand w.r.t. Jupiter3.4
ΔV w.r.t. Earth (km/sec)8.9
semimajor axis (AU)2.5512967
mean anomaly (°)219.61472
mean daily motion (°/day)0.24185910
aphelion distance (AU)3.151
period (years)4.08
P-vector [x]0.92773323
P-vector [y]-0.35904947
P-vector [z]-0.10195355
Q-vector [x]0.37279012
Q-vector [y]0.87790015
Q-vector [z]0.30053095
absolute magnitude17.75
phase slope0.15
uncertainty0
referenceMPEC 2024-F14
observations used253
oppositions10
arc length (days)6744
first opposition used2005
last opposition used2024
residual rms (arc-secs)0.70
perturbers coarse indicatorM-v
perturbers precise indicator003Ek
first observation date used2005-09-29.0
last observation date used2024-03-17.0
computer nameMPCLINUX
Minimum Orbit Intersection Distances (in AU)
for orbit epoch: 2460400.5, reference: E2024-F14
Mercury1.56186
Venus1.23095
Earth0.94551
Mars0.58282
Jupiter2.25528
Saturn6.11541
Uranus15.2977
Neptune27.2298

Observations

258 total observations over interval: 2005 09 29.36359 – 2024 03 17.516448
These data are available for download (format description).

Date (UT) J2000 RA J2000 Dec Magn Location Ref
2005 09 29.36359 01 53 47.18 +10 32 14.2 19.9 V G96 – Mt. Lemmon Survey MPS 144369
2005 09 29.37157 01 53 46.86 +10 32 10.6 19.7 V G96 – Mt. Lemmon Survey MPS 144369
2005 09 29.37953 01 53 46.57 +10 32 07.1 19.7 V G96 – Mt. Lemmon Survey MPS 144369
2005 09 29.38748 01 53 46.24 +10 32 03.5 19.7 V G96 – Mt. Lemmon Survey MPS 144369
2005 10 01.34502 01 52 33.87 +10 17 27.9 20.2 V 691 – Steward Observatory, Kitt Peak-Spacewatch MPS 144369
2005 10 01.36239 01 52 33.18 +10 17 20.2 19.9 V 691 – Steward Observatory, Kitt Peak-Spacewatch MPS 144369
2005 10 01.37977 01 52 32.44 +10 17 12.1 20.0 V 691 – Steward Observatory, Kitt Peak-Spacewatch MPS 144369
2005 10 10.30495 01 46 07.32 +09 05 35.6 19.9 V 691 – Steward Observatory, Kitt Peak-Spacewatch MPS 146205
2005 10 10.32228 01 46 06.45 +09 05 27.3 19.9 V 691 – Steward Observatory, Kitt Peak-Spacewatch MPS 146205
2005 10 10.34246 01 46 05.47 +09 05 16.7 20.0 V 691 – Steward Observatory, Kitt Peak-Spacewatch MPS 146205
2005 10 22.30731 01 36 27.97 +07 26 11.1 19.5 V 703 – Catalina Sky Survey MPS 146205
2005 10 22.31679 01 36 27.46 +07 26 07.1 20.6 V 703 – Catalina Sky Survey MPS 146205
2005 10 22.32626 01 36 27.00 +07 26 01.1 19.6 V 703 – Catalina Sky Survey MPS 146205
2005 10 22.33571 01 36 26.46 +07 25 56.1 19.4 V 703 – Catalina Sky Survey MPS 146205
2005 10 29.27546 01 31 11.06 +06 33 13.7 19.3 V G96 – Mt. Lemmon Survey MPS 147587
2005 10 29.28174 01 31 10.77 +06 33 10.7 19.3 V G96 – Mt. Lemmon Survey MPS 147587
2005 10 29.28789 01 31 10.48 +06 33 07.9 19.9 V G96 – Mt. Lemmon Survey MPS 147587
2005 10 29.29433 01 31 10.20 +06 33 05.1 19.3 V G96 – Mt. Lemmon Survey MPS 147587
2005 10 31.13244 01 29 53.87 +06 20 16.3 20.2 V 691 – Steward Observatory, Kitt Peak-Spacewatch MPS 147587
2005 10 31.14525 01 29 53.31 +06 20 11.0 20.2 V 691 – Steward Observatory, Kitt Peak-Spacewatch MPS 147587
2005 10 31.15802 01 29 52.77 +06 20 05.9 20.4 V 691 – Steward Observatory, Kitt Peak-Spacewatch MPS 147587
2005 11 01.12540 01 29 13.94 +06 13 35.0 20.3 V 691 – Steward Observatory, Kitt Peak-Spacewatch MPS 147587
2005 11 01.14083 01 29 13.27 +06 13 29.2 20.2 V 691 – Steward Observatory, Kitt Peak-Spacewatch MPS 147587
2005 11 01.15621 01 29 12.65 +06 13 22.9 20.2 V 691 – Steward Observatory, Kitt Peak-Spacewatch MPS 147587
2009 09 20.19672 00 48 34.30 +06 29 23.4 19.9 V 691 – Steward Observatory, Kitt Peak-Spacewatch MPS 296929
2009 09 20.21434 00 48 33.60 +06 29 14.6 19.8 V 691 – Steward Observatory, Kitt Peak-Spacewatch MPS 296929
2009 09 20.23196 00 48 32.87 +06 29 06.2 20.0 V 691 – Steward Observatory, Kitt Peak-Spacewatch MPS 296929
2009 09 20.24588 00 48 32.32 +06 28 59.1 19.9 V 691 – Steward Observatory, Kitt Peak-Spacewatch MPS 296929
2009 09 20.26350 00 48 31.61 +06 28 50.8 19.9 V 691 – Steward Observatory, Kitt Peak-Spacewatch MPS 296929
2009 09 20.28113 00 48 30.88 +06 28 42.3 19.8 V 691 – Steward Observatory, Kitt Peak-Spacewatch MPS 296929
2009 09 23.18919 00 46 36.65 +06 04 26.7 19.8 V 691 – Steward Observatory, Kitt Peak-Spacewatch MPS 296929
2009 09 23.20685 00 46 35.87 +06 04 18.0 19.6 V 691 – Steward Observatory, Kitt Peak-Spacewatch MPS 296929
2009 09 23.22450 00 46 35.12 +06 04 08.8 19.9 V 691 – Steward Observatory, Kitt Peak-Spacewatch MPS 296929
2009 09 24.27116 00 45 52.14 +05 55 10.7 19.8 V 691 – Steward Observatory, Kitt Peak-Spacewatch MPS 296929
2009 09 24.28883 00 45 51.35 +05 55 01.6 19.9 V 691 – Steward Observatory, Kitt Peak-Spacewatch MPS 296929
2009 09 24.30660 00 45 50.56 +05 54 52.5 19.8 V 691 – Steward Observatory, Kitt Peak-Spacewatch MPS 296929
2009 10 09.23896 00 35 09.56 +03 42 31.8 20.4 V 703 – Catalina Sky Survey MPS 298320
2009 10 09.24436 00 35 09.16 +03 42 29.7 20.0 V 703 – Catalina Sky Survey MPS 298320
2009 10 09.24987 00 35 08.98 +03 42 26.2 20.1 V 703 – Catalina Sky Survey MPS 298320
2009 10 09.25527 00 35 08.62 +03 42 23.3 19.0 V 703 – Catalina Sky Survey MPS 298320
2009 10 16.18365 00 30 39.96 +02 45 02.7 19.6 V G96 – Mt. Lemmon Survey MPS 299385
2009 10 16.19112 00 30 39.67 +02 44 59.4 19.6 V G96 – Mt. Lemmon Survey MPS 299385
2009 10 16.19863 00 30 39.38 +02 44 56.1 19.7 V G96 – Mt. Lemmon Survey MPS 299385
2009 10 16.20617 00 30 39.09 +02 44 52.5 19.6 V G96 – Mt. Lemmon Survey MPS 299385
2009 10 26.20178 00 25 48.75 +01 36 17.3 20.1 V G96 – Mt. Lemmon Survey MPS 300684
2009 10 26.20927 00 25 48.57 +01 36 14.5 20.1 V G96 – Mt. Lemmon Survey MPS 300684
2009 10 26.21673 00 25 48.39 +01 36 11.9 20.1 V G96 – Mt. Lemmon Survey MPS 300684
2009 10 26.22418 00 25 48.21 +01 36 09.4 20.0 V G96 – Mt. Lemmon Survey MPS 300684
2013 08 13.38269 23 45 50.19 +03 57 40.3 20.6 V 691 – Steward Observatory, Kitt Peak-Spacewatch MPS 473698
2013 08 13.40034 23 45 50.05 +03 57 37.7 20.4 V 691 – Steward Observatory, Kitt Peak-Spacewatch MPS 473698
2013 08 13.41797 23 45 49.91 +03 57 35.1 20.5 V 691 – Steward Observatory, Kitt Peak-Spacewatch MPS 473698
2013 08 15.50661 23 45 34.919 +03 52 05.10 20.1 w F51 – Pan-STARRS 1, Haleakala MPS 473698
2013 08 15.52216 23 45 34.727 +03 52 02.25 20.2 w F51 – Pan-STARRS 1, Haleakala MPS 473698
2013 08 15.53774 23 45 34.528 +03 51 59.58 20.3 w F51 – Pan-STARRS 1, Haleakala MPS 473698
2013 08 15.55328 23 45 34.335 +03 51 56.80 20.3 w F51 – Pan-STARRS 1, Haleakala MPS 473698
2013 08 28.40488 23 41 22.86 +02 52 18.1 20.7 V 703 – Catalina Sky Survey MPS 474365
2013 08 28.41104 23 41 22.65 +02 52 16.6 19.5 V 703 – Catalina Sky Survey MPS 474365
2013 08 28.41716 23 41 22.43 +02 52 13.7 20.7 V 703 – Catalina Sky Survey MPS 474365
2013 08 28.42337 23 41 22.35 +02 52 11.5 19.6 V 703 – Catalina Sky Survey MPS 474365
2013 09 03.35713 23 38 09.17 +02 11 18.9 19.8 V 703 – Catalina Sky Survey MPS 474919
2013 09 03.36159 23 38 08.90 +02 11 18.6 19.9 V 703 – Catalina Sky Survey MPS 474919
2013 09 03.36607 23 38 08.74 +02 11 14.7 19.5 V 703 – Catalina Sky Survey MPS 474919
2013 09 03.37058 23 38 08.61 +02 11 12.1 19.9 V 703 – Catalina Sky Survey MPS 474919
2013 09 03.43078 23 38 06.706 +02 10 47.01 19.6 w F51 – Pan-STARRS 1, Haleakala MPS 474919
2013 09 03.44566 23 38 06.121 +02 10 40.29 19.7 w F51 – Pan-STARRS 1, Haleakala MPS 474919
2013 09 03.46058 23 38 05.533 +02 10 33.61 19.7 w F51 – Pan-STARRS 1, Haleakala MPS 474919
2013 09 03.47549 23 38 04.946 +02 10 26.90 19.7 w F51 – Pan-STARRS 1, Haleakala MPS 474919
2013 09 04.21000 23 37 38.88 +02 04 51.3 19.5 r I41 – Palomar Mountain--ZTF MPS 474919
2013 09 04.24836 23 37 37.40 +02 04 34.0 19.5 r I41 – Palomar Mountain--ZTF MPS 474919
2013 09 04.28772 23 37 35.86 +02 04 16.0 19.5 r I41 – Palomar Mountain--ZTF MPS 474919
2013 09 06.20405 23 36 24.75 +01 49 18.8 19.7 r I41 – Palomar Mountain--ZTF MPS 476205
2013 09 06.24273 23 36 23.22 +01 49 00.2 19.4 r I41 – Palomar Mountain--ZTF MPS 476205
2013 09 06.27901 23 36 21.75 +01 48 42.8 19.4 r I41 – Palomar Mountain--ZTF MPS 476205
2013 09 10.26617 23 33 46.07 +01 15 52.7 19.4 r I41 – Palomar Mountain--ZTF MPS 476205
2013 09 10.32425 23 33 43.57 +01 15 23.3 19.3 r I41 – Palomar Mountain--ZTF MPS 476205
2013 09 10.36062 23 33 42.00 +01 15 04.6 19.2 r I41 – Palomar Mountain--ZTF MPS 476205
2013 09 12.34258 23 32 22.32 +00 58 04.8 19.0 V G96 – Mt. Lemmon Survey MPS 476205
2013 09 12.35168 23 32 21.93 +00 57 59.9 19.0 V G96 – Mt. Lemmon Survey MPS 476205
2013 09 12.36069 23 32 21.53 +00 57 55.2 19.0 V G96 – Mt. Lemmon Survey MPS 476205
2013 09 14.45150 23 30 57.006 +00 39 41.04 19.8 z F51 – Pan-STARRS 1, Haleakala MPS 476205
2013 09 14.45444 23 30 56.878 +00 39 39.50 19.8 z F51 – Pan-STARRS 1, Haleakala MPS 476205
2013 09 14.45739 23 30 56.747 +00 39 38.02 19.7 z F51 – Pan-STARRS 1, Haleakala MPS 476205
2013 09 14.46033 23 30 56.620 +00 39 36.40 19.9 z F51 – Pan-STARRS 1, Haleakala MPS 476205
2013 09 14.46327 23 30 56.488 +00 39 34.88 19.7 z F51 – Pan-STARRS 1, Haleakala MPS 476205
2013 09 14.46622 23 30 56.356 +00 39 33.29 19.7 z F51 – Pan-STARRS 1, Haleakala MPS 476205
2013 09 14.46916 23 30 56.231 +00 39 31.77 19.8 z F51 – Pan-STARRS 1, Haleakala MPS 476205
2013 09 14.47212 23 30 56.103 +00 39 30.20 19.9 z F51 – Pan-STARRS 1, Haleakala MPS 476205
2013 09 16.32664 23 29 41.680 +00 23 06.49 18.8 z F51 – Pan-STARRS 1, Haleakala MPS 477699
2013 09 16.32960 23 29 41.530 +00 23 05.00 19.1 z F51 – Pan-STARRS 1, Haleakala MPS 477699
2013 09 16.33662 23 29 41.246 +00 23 01.34 19.1 z F51 – Pan-STARRS 1, Haleakala MPS 477699
2013 09 16.33959 23 29 41.098 +00 22 59.53 19.2 z F51 – Pan-STARRS 1, Haleakala MPS 477699
